Wind_Speed
12 2 8 14 14 16 8 4 10 9 9 10 19 20 23 31 30 27 29 32 31 30 29 28 26 28 28 25 25 23 23 23 20 20 20 19 15 11 9 12 10 5 8 14
5 9 16 16 17 12 7 8 11 8 8 10 14 17 20 26 30 34 32 32 34 31 32 30 29 30 31 32 30 28 31 29 27 24 20 16 13 11 12 10 12 11 17 22
9 14 20 18 15 1 8 2 4 13 6 6 13 8 16 19 26 33 36 37 36 37 36 34 33 34 34 33 31 28 30 30 30 26 22 18 17 18 15 11 9 12 12 5
11 22 16 14 6 5 6 7 8 14 7 4 7 5 7 11 20 24 34 37 38 39 39 37 35 35 35 34 29 27 26 29 28 26 24 20 18 17 15 8 6 6 6 4
12 11 12 12 5 6 8 5 6 2 1 1 5 5 14 9 9 19 30 37 39 44 43 42 38 37 35 32 32 29 25 25 27 26 25 24 20 14 11 11 5 5 6 9
12 21 9 6 5 9 9 2 5 6 4 5 11 8 8 13 16 16 30 38 41 44 46 41 39 34 36 33 32 31 28 25 26 27 26 25 22 14 13 10 11 8 5 9
10 14 10 7 6 7 6 6 1 3 2 7 11 3 8 18 15 14 22 38 38 45 46 45 42 39 34 37 36 34 32 29 27 27 27 26 24 19 20 18 12 10 8 9
7 8 9 7 7 9 9 7 6 7 4 8 10 7 5 8 24 15 19 31 37 44 46 49 44 40 36 35 38 38 36 33 27 27 28 27 26 26 24 21 19 15 9 7
9 9 8 6 6 7 7 5 7 3 6 3 1 7 5 9 8 11 12 16 28 42 43 50 47 42 37 36 37 41 37 32 31 27 25 26 25 25 24 21 17 13 11 16
7 5 10 9 9 10 9 8 1 3 4 5 3 5 5 7 7 7 7 3 1 35 41 46 50 46 36 35 35 37 36 31 30 26 21 20 20 23 21 15 21 14 17 21
16 5 12 7 10 10 5 2 3 4 5 4 3 5 2 8 7 8 8 4 15 22 12 45 42 23 19 15 12 30 15 20 31 22 7 17 24 22 23 23 22 23 28 25
15 3 7 11 8 14 10 10 8 5 9 2 6 6 8 9 9 12 12 10 14 16 19 18 23 25 30 27 30 20 16 30 25 2 18 39 30 30 15 22 35 24 22 21
10 7 7 10 4 8 13 9 7 5 3 4 3 4 3 12 12 17 20 18 15 12 16 17 20 30 24 28 20 21 36 41 38 21 22 28 35 24 26 31 16 18 20 21
21 8 8 9 7 7 7 8 6 7 3 5 4 8 9 9 10 12 14 14 15 18 22 28 25 28 26 18 26 28 32 24 42 15 13 16 12 21 17 16 17 16 19 24
16 9 8 9 12 9 8 16 12 10 8 7 8 11 6 9 10 15 14 14 17 24 22 25 27 25 18 11 10 1 13 16 20 13 11 8 4 6 6 11 17 21 22 23
8 6 8 5 12 11 13 12 21 17 9 4 16 13 13 23 24 19 13 15 29 29 27 22 25 24 12 14 17 19 19 15 8 8 7 4 3 6 11 16 19 20 21 21
10 7 6 6 8 6 10 9 7 12 10 8 7 8 13 9 13 19 16 21 31 32 31 31 27 24 23 21 16 11 7 5 6 4 3 7 11 14 16 16 17 19 21 22
7 8 5 5 3 8 7 6 8 13 17 7 16 12 14 19 21 17 14 27 31 36 36 33 30 24 19 14 9 6 3 4 6 9 12 14 15 15 16 18 20 21 20 22
9 6 3 6 6 5 9 16 5 4 2 25 21 19 24 32 30 22 23 24 26 26 28 28 22 17 12 10 7 4 3 1 3 7 12 14 17 19 20 21 20 21 23 27
10 10 7 4 6 14 10 10 20 4 4 15 26 21 29 28 7 5 28 28 28 23 17 15 10 9 7 7 5 5 7 11 13 16 18 19 20 20 19 17 19 20 20 23
4 4 9 4 4 6 4 1 6 8 9 24 36 36 32 7 18 33 31 28 25 22 17 10 5 4 2 5 9 11 13 15 17 19 20 18 17 16 15 17 19 23 24 24
5 6 4 3 5 7 4 5 5 7 30 33 33 34 31 42 41 35 30 28 23 19 13 9 7 3 2 6 8 11 12 14 16 17 16 17 15 12 15 18 22 20 22 25
5 7 5 5 8 4 4 20 32 43 40 31 46 43 47 38 38 34 29 28 24 20 17 12 7 4 3 8 10 12 15 17 18 18 16 13 10 14 16 16 18 20 22 22
5 7 5 5 1 7 27 25 35 40 43 41 45 48 46 43 37 35 30 26 21 16 13 10 5 1 4 7 12 14 16 17 20 18 13 10 13 13 11 17 19 20 23 26
11 8 7 5 9 15 13 25 33 38 39 41 41 41 45 43 37 34 30 25 19 13 7 5 4 3 4 7 9 11 17 21 18 13 14 14 12 14 16 16 18 19 21 22
2 6 6 5 12 19 12 27 41 42 41 40 46 41 39 40 38 32 25 19 13 12 10 7 4 3 3 6 11 14 17 13 13 13 13 12 13 14 14 14 17 17 17 16
Wind_Direction
222 199 234 239 240 243 240 289 158 166 171 129 149 160 168 172 166 166 166 170 175 178 182 185 189 192 193 189 189 191 194 205 213 214 216 213 209 204 217 234 242 287 269 248
274 225 246 252 258 257 297 298 141 154 178 123 157 170 170 173 172 169 168 174 178 183 185 187 193 195 199 202 211 216 203 202 213 221 222 215 205 221 240 245 243 235 245 321
207 236 234 247 263 7 281 279 155 153 161 129 162 172 170 182 173 171 172 179 184 185 188 189 193 201 205 210 214 220 216 212 217 224 226 225 223 228 239 247 257 255 237 131
220 243 254 249 241 190 278 266 277 146 124 177 164 201 218 191 173 175 174 178 183 187 192 193 195 202 208 215 223 228 227 222 224 224 226 219 224 233 233 219 136 161 187 183
242 234 244 252 184 207 252 329 4 101 123 196 255 100 204 171 175 184 178 183 186 189 192 195 197 203 209 217 225 232 236 234 227 223 223 224 227 227 220 246 189 160 239 209
231 242 236 218 173 229 253 238 9 19 28 345 260 176 187 184 194 186 180 187 187 187 190 197 199 202 208 214 223 230 234 236 230 229 227 224 227 223 225 197 176 182 166 178
235 246 239 208 212 246 251 87 343 350 333 226 250 226 202 190 187 188 186 189 191 183 184 193 196 198 208 210 215 226 231 234 232 232 228 221 224 216 219 211 198 186 188 201
202 257 234 193 183 200 230 160 162 196 173 245 254 185 250 170 169 156 203 190 188 180 184 191 196 200 201 210 214 219 228 232 231 231 234 235 230 227 225 219 214 204 219 258
188 239 248 181 172 201 257 189 214 312 296 11 257 20 27 123 149 146 129 172 184 180 185 190 196 200 203 207 211 221 227 231 236 236 233 236 235 243 242 232 232 226 244 248
251 215 222 205 207 241 152 203 268 326 246 283 232 142 200 136 121 109 93 59 17 190 190 190 198 201 205 209 207 216 229 232 238 237 239 245 252 257 254 252 258 266 261 262
240 174 275 220 195 187 275 248 245 164 153 183 88 288 135 109 117 115 85 124 65 50 226 192 197 194 165 167 193 217 221 245 244 231 246 269 245 246 232 236 253 266 274 271
224 193 236 234 227 176 185 221 190 134 284 251 157 230 155 129 115 99 94 67 47 41 53 130 148 161 190 199 203 206 231 282 275 69 265 272 247 250 275 259 243 249 272 276
206 231 253 301 316 187 192 209 199 167 101 254 149 236 158 111 89 88 84 78 68 65 81 107 154 164 164 186 197 276 301 301 270 257 207 255 228 231 233 241 232 239 256 273
197 182 176 223 210 179 171 207 222 178 174 237 191 165 165 134 119 101 87 79 69 97 105 119 139 164 183 209 232 298 310 278 232 195 166 186 202 204 215 235 256 277 276 287
182 193 187 233 245 263 214 197 206 217 211 162 225 167 164 149 132 123 109 92 72 102 115 131 143 153 174 213 274 359 107 128 162 111 102 101 147 187 233 270 275 276 292 298
169 193 163 261 253 247 261 227 203 212 230 207 134 139 152 139 125 115 109 95 91 99 110 121 128 141 135 109 124 106 105 119 112 76 95 130 208 258 275 278 286 295 298 303
154 137 137 226 259 287 287 247 248 206 209 196 169 178 131 118 121 133 135 108 109 112 109 111 111 117 124 122 124 123 112 92 66 47 338 324 321 311 307 308 312 318 323 320
142 132 134 187 170 251 254 277 283 209 194 130 107 112 103 108 97 95 98 120 114 115 119 121 124 127 131 140 140 134 101 36 340 327 324 316 310 314 320 328 335 333 330 330
146 137 153 139 189 260 263 260 281 231 209 131 121 118 113 113 99 72 126 130 128 126 121 121 129 133 140 130 118 104 64 325 282 303 319 326 329 330 332 335 332 328 325 325
173 155 142 140 185 217 244 261 251 163 102 152 134 135 134 127 113 155 127 130 124 125 127 130 126 120 111 90 69 25 353 339 332 334 337 335 334 335 333 329 328 335 335 336
144 148 180 195 185 244 243 300 214 144 206 157 144 144 143 127 142 136 133 127 126 120 118 124 117 91 37 357 357 346 338 331 331 331 327 327 332 333 337 335 339 342 336 336
163 139 174 162 183 264 194 158 166 164 133 136 136 144 128 128 133 135 134 128 123 119 119 117 129 126 327 327 327 327 319 319 320 326 328 335 344 346 339 341 336 335 335 333
194 167 171 151 224 262 192 136 134 131 134 135 140 139 134 130 133 136 130 127 127 131 126 131 142 170 267 299 315 329 325 323 330 329 334 341 339 340 336 337 334 337 341 336
229 158 128 90 322 123 118 123 128 136 136 138 138 137 140 135 136 132 131 135 138 143 154 165 181 272 290 318 329 324 322 327 329 328 339 343 338 342 351 347 340 344 339 337
221 169 130 71 55 92 91 121 122 131 131 130 131 134 136 137 135 138 140 140 143 151 147 161 179 201 280 322 315 318 318 320 322 341 346 346 11 3 1 353 357 356 345 352
341 162 141 161 148 106 105 115 126 127 129 133 133 132 139 141 140 142 135 146 154 149 163 188 228 297 326 310 310 320 320 334 354 356 358 2 3 2 350 345 350 346 356 357
Height
1501 1509 1515 1500 1491 1488 1488 1487 1494 1491 1485 1498 1506 1513 1515 1519 1523 1529 1534 1538 1542 1547 1551 1554 1558 1561 1563 1563 1565 1568 1568 1569 1570 1571 1571 1572 1574 1580 1580 1581 1586 1587 1583 1577
1505 1513 1491 1487 1484 1484 1482 1489 1493 1488 1482 1494 1505 1510 1508 1513 1516 1518 1527 1533 1537 1543 1546 1550 1553 1556 1557 1559 1561 1563 1566 1567 1569 1570 1569 1570 1572 1576 1576 1577 1578 1581 1578 1579
1508 1492 1483 1484 1484 1482 1484 1489 1490 1494 1484 1486 1501 1516 1510 1508 1511 1516 1520 1524 1531 1533 1539 1544 1548 1551 1553 1554 1557 1560 1562 1564 1565 1566 1567 1569 1571 1572 1573 1573 1575 1572 1574 1570
1496 1484 1485 1481 1481 1480 1496 1474 1476 1483 1500 1523 1493 1549 1518 1504 1506 1509 1513 1518 1523 1528 1533 1537 1541 1546 1549 1551 1554 1556 1558 1559 1562 1566 1567 1568 1569 1571 1572 1574 1576 1573 1570 1570
1492 1482 1484 1485 1479 1475 1487 1474 1478 1478 1495 1499 1500 1530 1508 1504 1511 1507 1507 1511 1515 1519 1523 1528 1533 1539 1543 1547 1550 1552 1555 1558 1561 1562 1562 1562 1564 1566 1569 1572 1574 1575 1573 1572
1479 1470 1471 1471 1470 1473 1472 1478 1481 1487 1501 1539 1508 1515 1518 1507 1498 1497 1500 1503 1505 1512 1517 1521 1526 1532 1538 1542 1544 1548 1549 1552 1555 1557 1560 1562 1565 1567 1567 1565 1566 1569 1572 1571
1478 1474 1466 1466 1477 1472 1476 1496 1536 1544 1545 1547 1498 1505 1503 1484 1485 1486 1489 1495 1499 1503 1509 1516 1520 1523 1531 1533 1533 1538 1541 1543 1548 1553 1558 1560 1562 1564 1565 1567 1566 1566 1564 1564
1498 1504 1470 1462 1473 1486 1486 1494 1535 1553 1542 1531 1486 1516 1497 1471 1476 1482 1482 1486 1492 1498 1503 1506 1512 1516 1518 1527 1530 1528 1529 1537 1544 1550 1553 1563 1566 1564 1564 1563 1565 1566 1564 1564
1491 1490 1459 1458 1462 1469 1484 1498 1484 1511 1505 1522 1498 1491 1478 1474 1477 1479 1481 1484 1489 1493 1497 1502 1506 1509 1515 1518 1526 1526 1526 1537 1543 1546 1553 1559 1565 1572 1569 1568 1571 1569 1566 1563
1468 1493 1460 1457 1459 1462 1474 1471 1506 1514 1536 1536 1510 1506 1511 1489 1484 1482 1483 1486 1489 1491 1493 1499 1501 1507 1509 1514 1520 1528 1533 1533 1540 1548 1555 1559 1566 1572 1572 1570 1569 1564 1564 1560
1459 1476 1472 1457 1467 1477 1478 1486 1485 1494 1508 1530 1538 1530 1482 1485 1483 1484 1484 1488 1490 1493 1495 1495 1503 1517 1518 1525 1535 1538 1539 1544 1539 1545 1559 1563 1563 1557 1555 1561 1561 1559 1562 1554
1450 1465 1486 1473 1451 1449 1461 1474 1481 1517 1516 1506 1516 1525 1477 1477 1479 1483 1486 1489 1491 1493 1495 1502 1508 1511 1526 1530 1534 1534 1528 1538 1533 1518 1550 1562 1562 1557 1550 1560 1560 1551 1554 1550
1447 1467 1491 1481 1460 1450 1462 1465 1469 1476 1489 1508 1522 1519 1477 1477 1481 1485 1488 1491 1494 1496 1498 1501 1505 1512 1522 1523 1521 1527 1521 1522 1533 1530 1538 1541 1550 1552 1549 1556 1555 1554 1549 1544
1435 1456 1472 1488 1477 1460 1467 1462 1462 1475 1505 1502 1501 1496 1486 1483 1484 1486 1489 1493 1497 1498 1501 1505 1510 1513 1515 1515 1518 1525 1522 1512 1521 1536 1541 1544 1546 1550 1551 1553 1551 1545 1540 1536
1429 1461 1455 1452 1449 1451 1454 1456 1460 1474 1479 1495 1487 1488 1486 1482 1484 1487 1490 1494 1498 1500 1504 1509 1512 1514 1518 1522 1523 1520 1524 1529 1542 1543 1543 1543 1549 1549 1549 1545 1542 1539 1531 1526
1421 1452 1446 1457 1444 1446 1454 1448 1450 1455 1461 1464 1472 1485 1471 1477 1481 1486 1492 1497 1502 1504 1507 1511 1515 1520 1525 1526 1528 1526 1531 1539 1539 1535 1538 1542 1542 1540 1539 1537 1533 1525 1521 1516
1425 1443 1456 1470 1452 1452 1471 1450 1448 1447 1450 1456 1478 1470 1468 1481 1483 1486 1490 1496 1503 1507 1510 1512 1516 1522 1525 1530 1531 1532 1532 1532 1530 1531 1533 1533 1530 1529 1528 1525 1521 1516 1511 1511
1425 1436 1449 1467 1455 1489 1445 1433 1434 1438 1439 1445 1455 1465 1471 1476 1484 1487 1491 1495 1502 1507 1512 1512 1516 1522 1526 1528 1530 1531 1531 1531 1530 1530 1529 1528 1527 1525 1521 1516 1511 1509 1509 1507
1408 1428 1452 1470 1475 1457 1443 1435 1439 1441 1445 1442 1454 1466 1473 1477 1482 1493 1494 1497 1502 1506 1510 1512 1518 1523 1526 1528 1529 1529 1530 1530 1530 1528 1527 1523 1519 1514 1510 1507 1508 1508 1506 1504
1408 1415 1440 1457 1473 1478 1445 1429 1426 1429 1468 1443 1445 1458 1464 1474 1495 1502 1498 1499 1505 1507 1509 1513 1518 1521 1524 1525 1526 1526 1524 1523 1521 1519 1516 1513 1511 1509 1510 1511 1508 1506 1503 1500
1425 1429 1444 1453 1458 1447 1424 1423 1422 1456 1464 1446 1443 1454 1466 1475 1481 1493 1496 1502 1504 1505 1510 1515 1517 1519 1520 1521 1522 1521 1520 1518 1517 1514 1513 1513 1513 1511 1509 1506 1504 1501 1498 1496
1424 1438 1446 1444 1457 1462 1418 1422 1436 1432 1438 1444 1454 1463 1470 1477 1485 1488 1496 1500 1501 1508 1513 1517 1518 1520 1522 1523 1523 1522 1521 1520 1518 1516 1514 1511 1509 1507 1505 1503 1501 1499 1496 1492
1423 1416 1431 1431 1435 1420 1417 1420 1427 1429 1436 1445 1447 1458 1467 1479 1484 1491 1496 1499 1504 1511 1515 1517 1518 1520 1522 1522 1521 1520 1518 1516 1514 1512 1511 1509 1507 1505 1504 1501 1499 1497 1492 1488
1401 1400 1419 1425 1424 1419 1421 1426 1429 1431 1436 1445 1450 1455 1464 1476 1485 1491 1495 1501 1506 1513 1517 1519 1520 1520 1520 1519 1519 1517 1515 1514 1512 1510 1508 1506 1505 1503 1501 1500 1497 1493 1489 1485
1398 1398 1411 1423 1425 1426 1429 1428 1431 1437 1442 1449 1456 1462 1470 1476 1485 1490 1497 1502 1509 1514 1517 1518 1519 1520 1519 1518 1516 1515 1514 1512 1509 1507 1506 1504 1503 1502 1500 1499 1495 1492 1487 1484
1393 1395 1408 1430 1420 1425 1433 1434 1435 1440 1447 1452 1457 1468 1475 1475 1483 1492 1499 1506 1512 1515 1517 1517 1518 1518 1518 1516 1516 1515 1512 1509 1507 1506 1504 1503 1502 1500 1498 1496 1494 1491 1488 1484